Staverton, United Kingdom

4:10 AM BST on June 18, 2018 (GMT +0100)
Gloucestershire

Weather History for EGBJ - October, 2017

Change the Weather History Date:

Friday, October 6, 2017

  Actual Average Record
Temperature  
Mean Temperature 51 °F -  
Max Temperature 60 °F 55 °F 68 °F (2015)
Min Temperature 42 °F 48 °F 39 °F (2008)
Degree Days  
Heating Degree Days 14    
Growing Degree Days 1 (Base 50)    
Moisture  
Dew Point 45 °F    
Average Humidity 68    
Maximum Humidity 87    
Minimum Humidity 55    
Precipitation  
Precipitation 0.00 in - - ()
Sea Level Pressure  
Sea Level Pressure 30.32 in    
Wind  
Wind Speed 4 mph ()    
Max Wind Speed 8 mph    
Max Gust Speed -    
Visibility 6.2 miles    
Events      
Averages and records for this station are not official NWS values.
T = Trace of Precipitation, MM = Missing Value Source: Averaged Metar Reports

Daily Weather History Graph

Daily Weather History Graph

Search for Another Location

Airport or City:

Astronomy

Oct. 06, 2017 Rise Set
Actual Time 7:18 AM BST 6:34 PM BST
Civil Twilight 6:44 AM BST 7:08 PM BST
Nautical Twilight 6:05 AM BST 7:46 PM BST
Astronomical Twilight 5:25 AM BST 8:26 PM BST
Moon 7:22 PM BST (10/6) 7:46 AM BST (10/6)
Length of Visible Light 12h 23m
Length of Day
11h 16m
Full, 99% of the Moon is Illuminated
Oct 6
Full
Oct 12
Last Quarter
Oct 19
New
Oct 27
First Quarter
Nov 4
Full

Hourly Weather History & Observations

Time (BST) Temp. Windchill Dew Point Humidity Pressure Visibility Wind Dir Wind Speed Gust Speed Precip Events Conditions
8:20 AM 42.8 °F - 39.2 °F 87% 30.30 in 6.2 mi WSW 2.3 mph - N/A   Partly Cloudy
8:50 AM 46.4 °F 45.2 °F 42.8 °F 87% 30.33 in 6.2 mi West 3.5 mph - N/A   Partly Cloudy
9:20 AM 48.2 °F - 44.6 °F 87% 30.33 in 6.2 mi West 3.5 mph - N/A   Partly Cloudy
9:50 AM 51.8 °F - 46.4 °F 82% 30.33 in 6.2 mi WNW 3.5 mph - N/A   Partly Cloudy
10:20 AM 53.6 °F - 46.4 °F 77% 30.33 in 6.2 mi NNW 5.8 mph - N/A   Partly Cloudy
10:50 AM 55.4 °F - 46.4 °F 72% 30.33 in 6.2 mi North 6.9 mph - N/A   Partly Cloudy
11:20 AM 57.2 °F - 46.4 °F 67% 30.33 in 6.2 mi North 5.8 mph - N/A   Partly Cloudy
11:50 AM 57.2 °F - 46.4 °F 67% 30.33 in 6.2 mi North 8.1 mph - N/A   Partly Cloudy
12:20 PM 59.0 °F - 44.6 °F 59% 30.33 in 6.2 mi North 4.6 mph - N/A   Partly Cloudy
12:50 PM 59.0 °F - 48.2 °F 67% 30.33 in 6.2 mi NNW 3.5 mph - N/A   Scattered Clouds
1:20 PM 59.0 °F - 44.6 °F 59% 30.33 in 6.2 mi WNW 3.5 mph - N/A   Scattered Clouds
1:50 PM 59.0 °F - 46.4 °F 63% 30.33 in 6.2 mi NW 4.6 mph - N/A   Scattered Clouds
2:20 PM 59.0 °F - 42.8 °F 55% 30.33 in 6.2 mi NW 8.1 mph - N/A   Scattered Clouds
2:50 PM 59.0 °F - 44.6 °F 59% 30.33 in 6.2 mi West 4.6 mph - N/A   Scattered Clouds
3:20 PM 60.8 °F - 44.6 °F 55% 30.33 in 6.2 mi WNW 5.8 mph - N/A   Scattered Clouds
3:50 PM 60.8 °F - 44.6 °F 55% 30.33 in 6.2 mi WNW 8.1 mph - N/A   Partly Cloudy
4:20 PM 59.0 °F - 46.4 °F 63% 30.30 in 6.2 mi West 4.6 mph - N/A   Partly Cloudy
4:50 PM 59.0 °F - 44.6 °F 59% 30.30 in 6.2 mi West 6.9 mph - N/A   Partly Cloudy
5:20 PM 57.2 °F - 46.4 °F 67% 30.30 in 6.2 mi WSW 5.8 mph - N/A   Partly Cloudy
5:50 PM 57.2 °F - 46.4 °F 67% 30.30 in - WSW 4.6 mph - N/A   Clear
6:20 PM 57.2 °F - 46.4 °F 67% 30.30 in - WSW 4.6 mph - N/A   Clear
6:50 PM 55.4 °F - 48.2 °F 77% 30.27 in - SW 5.8 mph - N/A   Clear